EW8665 Weather Reports


time (UTC)temp
C
wind
direction
speed
KPH
gust
KPH
rain 1hr
cm
rain 24hr
cm
rain mn
cm
humidity
%
barometer
mb
20260906073005 16 239 6.4 9.7 0.00 0.18 0.00 74 1027.1
20260906072505 16 239 6.4 9.7 0.00 0.18 0.00 75 1026.9
20260906071505 15 243 4.8 8.0 0.00 0.18 0.00 75 1027.0
20260906070507 15 239 4.8 8.0 0.00 0.18 0.00 77 1026.9
20260906070005 15 238 4.8 8.0 0.00 0.18 0.00 78 1026.8
20260906065005 15 233 3.2 6.4 0.00 0.18 0.00 80 1026.8
20260906064506 15 231 1.6 6.4 0.00 0.18 0.00 81 1026.9
20260906064005 15 193 0.0 3.2 0.00 0.18 0.00 81 1026.8
20260906063505 15 127 0.0 3.2 0.00 0.18 0.00 83 1026.8
20260906063006 14 98 0.0 3.2 0.00 0.18 0.00 84 1026.9
20260906062005 14 78 1.6 3.2 0.00 0.18 0.00 86 1027.0
20260906061505 13 74 1.6 3.2 0.00 0.18 0.00 86 1027.0
20260906061005 13 74 3.2 4.8 0.00 0.18 0.00 86 1026.8
20260906060505 13 68 3.2 4.8 0.00 0.18 0.00 87 1027.0
20260906060005 13 70 3.2 6.4 0.00 0.18 0.00 86 1026.9
20260906055505 12 71 3.2 6.4 0.00 0.18 0.00 86 1026.8
20260906055005 12 75 1.6 6.4 0.00 0.18 0.00 86 1026.8
20260906053005 12 79 1.6 4.8 0.00 0.18 0.00 84 1026.9
20260906052004 12 63 0.0 0.0 0.00 0.18 0.00 84 1027.0
20260906051005 12 63 1.6 3.2 0.00 0.18 0.00 83 1026.9
20260906050505 12 64 0.0 3.2 0.00 0.18 0.00 83 1026.9
20260906050005 12 76 0.0 1.6 0.00 0.18 0.00 83 1026.7
20260906045505 13 60 0.0 0.0 0.00 0.18 0.00 84 1026.6
20260906045005 13 74 0.0 0.0 0.00 0.18 0.00 84 1026.7
20260906044506 13 83 0.0 3.2 0.00 0.18 0.00 84 1026.8
20260906044005 12 78 0.0 3.2 0.00 0.18 0.00 84 1026.7
20260906043506 12 72 1.6 3.2 0.00 0.18 0.00 84 1026.6
20260906043005 12 69 1.6 3.2 0.00 0.18 0.00 84 1026.5
20260906042505 12 88 1.6 3.2 0.00 0.20 0.00 84 1026.6
20260906042004 12 82 1.6 3.2 0.00 0.20 0.00 84 1026.7
20260906041505 12 75 1.6 3.2 0.00 0.20 0.00 83 1026.7
20260906041005 12 95 1.6 3.2 0.00 0.20 0.00 83 1026.4
20260906040505 13 112 1.6 3.2 0.00 0.23 0.00 83 1026.4
20260906040005 13 106 1.6 3.2 0.00 0.23 0.00 83 1026.6
20260906035505 13 92 0.0 3.2 0.00 0.23 0.00 82 1026.8
20260906035005 13 97 0.0 3.2 0.00 0.23 0.00 83 1026.6
20260906034505 13 94 1.6 3.2 0.00 0.23 0.00 83 1026.6
20260906034005 13 88 1.6 3.2 0.00 0.23 0.00 83 1026.7
20260906033504 13 85 1.6 3.2 0.00 0.23 0.00 83 1026.6
20260906033005 13 87 1.6 3.2 0.00 0.23 0.00 83 1026.6
20260906032507 13 83 1.6 4.8 0.00 0.23 0.00 83 1026.6
20260906031506 13 78 3.2 4.8 0.00 0.23 0.00 83 1026.7
20260906031005 13 82 3.2 4.8 0.00 0.23 0.00 83 1026.6
20260906030505 13 83 3.2 4.8 0.00 0.23 0.00 83 1026.7
20260906025505 13 89 1.6 4.8 0.00 0.23 0.00 82 1026.8
20260906025005 13 95 0.0 4.8 0.00 0.23 0.00 82 1026.9
20260906024505 13 97 1.6 4.8 0.00 0.23 0.00 82 1027.1
20260906024006 13 96 3.2 3.2 0.00 0.23 0.00 82 1027.1
20260906023505 13 107 1.6 3.2 0.00 0.23 0.00 82 1027.0
20260906023005 13 129 1.6 3.2 0.00 0.23 0.00 82 1027.0
20260906022505 14 136 0.0 3.2 0.00 0.23 0.00 81 1026.7
20260906022005 14 121 0.0 3.2 0.00 0.23 0.00 81 1027.1
20260906021505 14 121 0.0 3.2 0.00 0.23 0.00 81 1026.8
20260906021005 14 104 0.0 3.2 0.00 0.23 0.00 81 1026.8
20260906020005 14 87 1.6 3.2 0.00 0.23 0.00 81 1026.7
20260906015506 14 91 1.6 3.2 0.00 0.23 0.00 81 1026.7
20260906015005 15 98 1.6 6.4 0.00 0.23 0.00 81 1026.7
20260906014505 15 92 3.2 6.4 0.00 0.23 0.00 81 1026.7
20260906014005 15 92 3.2 4.8 0.00 0.23 0.00 80 1026.7
20260906013505 15 87 3.2 4.8 0.00 0.23 0.00 80 1026.7
20260906012505 15 75 3.2 4.8 0.00 0.23 0.00 79 1026.6
20260906012005 15 72 3.2 3.2 0.00 0.23 0.00 79 1026.6
20260906011505 15 70 3.2 6.4 0.00 0.23 0.00 78 1026.7
20260906011006 15 63 4.8 8.0 0.00 0.23 0.00 78 1026.5
20260906010505 15 58 4.8 8.0 0.00 0.23 0.00 79 1026.3
20260906010005 15 55 4.8 8.0 0.00 0.23 0.00 79 1026.6
20260906005505 15 54 4.8 9.7 0.00 0.23 0.00 79 1026.6
20260906005005 15 51 4.8 9.7 0.00 0.23 0.00 78 1026.8
20260906004505 15 49 6.4 9.7 0.00 0.23 0.00 77 1026.9
20260906004005 15 52 6.4 11.3 0.00 0.23 0.00 80 1027.0
20260906003505 15 51 4.8 11.3 0.00 0.23 0.00 80 1026.8
20260906003005 15 50 4.8 9.7 0.00 0.23 0.00 80 1026.7
20260906002505 15 47 4.8 9.7 0.00 0.23 0.00 81 1026.7
20260906002004 15 37 4.8 6.4 0.00 0.23 0.00 81 1027.0
20260906001505 15 38 4.8 8.0 0.00 0.23 0.00 81 1026.9
20260906000505 16 35 4.8 9.7 0.00 0.23 0.00 81 1027.1
20260905235504 16 40 6.4 9.7 0.00 0.23 0.00 81 1027.0
20260905235005 16 42 6.4 9.7 0.00 0.23 0.00 81 1027.2
20260905234505 16 41 6.4 8.0 0.00 0.23 0.00 81 1027.0
20260905234004 16 43 6.4 8.0 0.00 0.23 0.00 81 1027.1
20260905233504 16 44 6.4 12.9 0.00 0.23 0.00 81 1027.1
20260905233005 16 45 6.4 12.9 0.00 0.23 0.00 81 1027.2
20260905232504 16 46 6.4 9.7 0.00 0.23 0.00 81 1027.1
20260905232005 16 51 6.4 9.7 0.00 0.23 0.00 81 1027.3
20260905231006 16 53 6.4 9.7 0.00 0.23 0.00 81 1027.1
20260905230505 16 51 6.4 9.7 0.00 0.23 0.00 81 1027.2
20260905225506 16 46 4.8 6.4 0.00 0.23 0.00 80 1027.3
20260905225005 16 49 4.8 6.4 0.00 0.23 0.00 79 1027.0
20260905224505 16 50 4.8 6.4 0.00 0.23 0.00 79 1027.0
20260905223505 16 50 4.8 8.0 0.00 0.23 0.00 78 1026.9
20260905223004 16 53 4.8 8.0 0.00 0.23 0.00 78 1027.0
20260905222505 16 57 4.8 8.0 0.00 0.23 0.00 78 1027.0
20260905222005 16 54 6.4 9.7 0.00 0.23 0.00 77 1027.1
20260905221505 16 55 6.4 9.7 0.00 0.23 0.00 77 1027.1
20260905221005 16 57 6.4 12.9 0.00 0.23 0.00 76 1027.2
20260905220505 16 54 6.4 12.9 0.00 0.23 0.00 76 1027.2
20260905220007 17 53 6.4 12.9 0.00 0.23 0.00 75 1027.3
20260905215505 17 59 4.8 8.0 0.00 0.23 0.23 75 1027.3
20260905215004 17 68 6.4 9.7 0.00 0.23 0.23 75 1027.5
20260905214505 17 71 3.2 9.7 0.00 0.23 0.23 74 1027.3
20260905213005 17 71 4.8 11.3 0.00 0.23 0.23 71 1027.2
20260905212504 17 61 6.4 11.3 0.00 0.23 0.23 71 1027.2
20260905212005 17 50 6.4 9.7 0.00 0.23 0.23 72 1026.8
20260905211507 17 46 6.4 9.7 0.00 0.23 0.23 73 1026.8
20260905210505 17 42 3.2 6.4 0.00 0.23 0.23 73 1026.8
20260905210005 17 31 3.2 6.4 0.00 0.23 0.23 73 1026.8
20260905205005 17 20 4.8 8.0 0.00 0.23 0.23 73 1026.9
20260905203505 17 8 4.8 9.7 0.00 0.23 0.23 74 1027.0
20260905203004 17 9 6.4 9.7 0.00 0.23 0.23 74 1026.8
20260905202005 17 11 6.4 8.0 0.00 0.23 0.23 74 1026.9
20260905201506 17 14 6.4 9.7 0.00 0.23 0.23 73 1026.8
20260905201004 17 18 6.4 9.7 0.00 0.23 0.23 73 1026.9
20260905200505 17 16 6.4 9.7 0.00 0.23 0.23 71 1026.9
20260905200006 17 12 4.8 9.7 0.00 0.23 0.23 70 1026.7
20260905195504 17 7 6.4 9.7 0.00 0.23 0.23 70 1026.6
20260905195005 17 5 6.4 9.7 0.00 0.23 0.23 70 1026.6
20260905194505 17 7 6.4 9.7 0.00 0.23 0.23 71 1026.6
20260905194004 17 5 4.8 8.0 0.00 0.23 0.23 72 1026.5
20260905192505 18 9 4.8 9.7 0.00 0.23 0.23 71 1026.5
20260905192005 18 8 4.8 9.7 0.00 0.23 0.23 72 1026.6
20260905191505 18 6 4.8 8.0 0.00 0.23 0.23 72 1026.4
20260905191006 18 7 4.8 9.7 0.00 0.23 0.23 72 1026.5
20260905190504 18 7 6.4 9.7 0.00 0.23 0.23 72 1026.5
20260905190005 18 10 6.4 9.7 0.00 0.23 0.23 72 1026.4
20260905185505 18 13 4.8 8.0 0.00 0.23 0.23 72 1026.3
20260905185005 18 14 4.8 11.3 0.00 0.23 0.23 72 1026.3
20260905184505 18 11 6.4 11.3 0.00 0.23 0.23 72 1026.3
20260905183505 18 6 4.8 8.0 0.00 0.23 0.23 73 1026.3
20260905183005 18 5 6.4 9.7 0.00 0.23 0.23 72 1026.3
20260905182505 18 7 6.4 9.7 0.00 0.23 0.23 72 1026.0
20260905182005 18 7 6.4 8.0 0.00 0.23 0.23 72 1026.0
20260905181005 19 6 6.4 9.7 0.00 0.23 0.23 72 1026.0
20260905175005 20 28 6.4 9.7 0.00 0.23 0.23 71 1026.0
20260905174505 20 30 6.4 9.7 0.00 0.23 0.23 69 1025.8
20260905174006 21 38 6.4 11.3 0.00 0.23 0.23 68 1025.9
20260905173504 21 33 6.4 11.3 0.00 0.23 0.23 68 1025.9
20260905173005 21 28 6.4 9.7 0.00 0.23 0.23 67 1025.8
20260905172505 21 14 4.8 9.7 0.00 0.23 0.23 66 1026.0
20260905172005 22 330 4.8 8.0 0.00 0.23 0.23 63 1025.8
20260905171505 23 234 4.8 8.0 0.00 0.23 0.23 61 1025.6
20260905171004 23 235 3.2 8.0 0.00 0.23 0.23 61 1025.7
20260905170506 23 236 3.2 6.4 0.00 0.23 0.23 59 1025.6
20260905170005 23 246 3.2 8.0 0.00 0.23 0.23 59 1025.8
20260905165504 24 236 4.8 8.0 0.00 0.23 0.23 58 1025.7
20260905165004 24 245 4.8 8.0 0.00 0.23 0.23 58 1025.6
20260905164504 24 247 3.2 8.0 0.00 0.23 0.23 57 1025.7
20260905164006 25 241 3.2 6.4 0.00 0.23 0.23 56 1025.5
20260905163504 25 236 3.2 9.7 0.00 0.23 0.23 56 1025.8
20260905163005 24 232 4.8 9.7 0.00 0.23 0.23 57 1025.6
20260905162505 24 242 6.4 12.9 0.00 0.23 0.23 57 1025.6
20260905162005 24 246 6.4 12.9 0.00 0.23 0.23 57 1025.5
20260905161005 24 244 6.4 12.9 0.00 0.23 0.23 60 1025.6
20260905160506 24 260 6.4 12.9 0.00 0.23 0.23 61 1025.5
20260905160005 23 267 6.4 11.3 0.00 0.23 0.23 61 1025.6
20260905155505 23 265 6.4 11.3 0.00 0.23 0.23 60 1025.6
20260905154504 24 239 4.8 12.9 0.00 0.23 0.23 62 1025.6
20260905153505 23 223 6.4 12.9 0.00 0.23 0.23 63 1025.6
20260905153004 23 214 6.4 12.9 0.00 0.23 0.23 62 1025.8
20260905152505 23 210 6.4 11.3 0.00 0.23 0.23 63 1025.7
20260905151504 23 212 6.4 14.5 0.00 0.23 0.23 63 1025.7
20260905150504 23 214 8.0 12.9 0.00 0.20 0.23 63 1025.8
20260905150005 23 215 6.4 11.3 0.00 0.20 0.23 62 1025.6
20260905145505 23 213 6.4 12.9 0.00 0.20 0.23 63 1025.7
20260905145004 23 220 6.4 12.9 0.00 0.20 0.23 63 1025.8
20260905144504 23 233 4.8 9.7 0.00 0.20 0.23 63 1025.7
20260905143505 22 228 6.4 12.9 0.00 0.20 0.23 63 1025.6
20260905143005 22 251 8.0 16.1 0.00 0.20 0.23 63 1025.7
20260905142005 22 252 6.4 16.1 0.00 0.20 0.23 63 1025.9
20260905141504 22 236 6.4 12.9 0.00 0.20 0.23 63 1025.7
20260905141004 22 238 6.4 14.5 0.00 0.20 0.23 64 1025.9
20260905140505 22 250 4.8 14.5 0.00 0.20 0.23 68 1025.9
20260905140005 22 244 4.8 11.3 0.00 0.20 0.23 68 1025.8
20260905134504 22 247 8.0 14.5 0.00 0.20 0.23 72 1025.9
20260905134005 21 255 6.4 11.3 0.00 0.20 0.23 72 1026.0
20260905133505 21 256 4.8 11.3 0.00 0.20 0.23 72 1026.0
20260905131505 20 273 4.8 12.9 0.00 0.20 0.23 76 1026.0
20260905131005 20 256 4.8 12.9 0.00 0.20 0.23 77 1025.9
20260905130505 20 223 3.2 9.7 0.00 0.20 0.23 78 1025.8
20260905130004 20 218 4.8 16.1 0.00 0.20 0.23 77 1025.8
20260905125505 20 217 6.4 16.1 0.00 0.20 0.23 76 1025.9
20260905125005 20 212 4.8 11.3 0.00 0.20 0.23 76 1025.9
20260905124504 20 207 6.4 11.3 0.00 0.20 0.23 77 1026.0
20260905124004 20 215 8.0 14.5 0.00 0.20 0.23 75 1026.0
20260905123505 20 233 4.8 14.5 0.00 0.20 0.23 75 1026.0
20260905123005 20 252 3.2 8.0 0.00 0.20 0.23 76 1026.0
20260905121504 20 227 3.2 8.0 0.03 0.20 0.23 76 1026.1
20260905121005 20 242 3.2 11.3 0.05 0.20 0.23 76 1026.2
20260905120505 20 316 4.8 11.3 0.05 0.20 0.23 75 1026.0
20260905120005 20 111 4.8 11.3 0.05 0.20 0.23 79 1026.0
20260905115504 20 52 1.6 8.0 0.05 0.20 0.23 81 1026.0
20260905114505 20 59 3.2 8.0 0.08 0.20 0.23 81 1026.0
20260905114005 20 73 1.6 8.0 0.08 0.20 0.23 82 1025.8
20260905113504 20 84 1.6 4.8 0.08 0.20 0.23 83 1025.9
20260905113006 20 90 3.2 6.4 0.10 0.20 0.23 82 1025.9
20260905112504 20 98 3.2 6.4 0.10 0.20 0.23 81 1026.0
20260905112004 20 106 1.6 6.4 0.10 0.20 0.23 81 1025.9
20260905111505 20 99 1.6 3.2 0.10 0.20 0.20 82 1026.1
20260905111005 20 107 1.6 4.8 0.10 0.18 0.18 82 1026.2
20260905110504 20 76 3.2 4.8 0.10 0.18 0.18 83 1026.1
20260905110004 20 49 3.2 4.8 0.10 0.15 0.18 83 1026.1
20260905105505 20 36 3.2 6.4 0.10 0.15 0.18 82 1026.0
20260905105004 19 21 3.2 9.7 0.10 0.15 0.15 82 1025.9
20260905104504 19 7 4.8 9.7 0.10 0.13 0.15 82 1026.0
20260905104005 19 7 4.8 9.7 0.10 0.13 0.15 81 1025.8
20260905103505 19 50 3.2 9.7 0.10 0.13 0.15 81 1025.8
20260905103005 19 136 3.2 3.2 0.10 0.10 0.13 79 1025.7
20260905102505 20 211 1.6 3.2 0.08 0.10 0.13 79 1025.8
20260905102004 20 222 1.6 3.2 0.08 0.10 0.10 79 1025.8
20260905101505 20 234 1.6 3.2 0.05 0.08 0.10 79 1025.8
20260905101005 20 245 3.2 6.4 0.05 0.08 0.10 80 1025.8
20260905100005 20 259 6.4 11.3 0.05 0.05 0.08 81 1025.8
20260905095504 21 261 6.4 12.9 0.03 0.05 0.08 81 1025.7
20260905095005 21 267 6.4 12.9 0.00 0.03 0.05 80 1025.5
20260905094004 21 277 0.0 0.0 0.00 0.03 0.05 78 1025.1
20260905093504 21 253 0.0 0.0 0.00 0.03 0.05 78 1025.0
20260905093004 21 253 0.0 3.2 0.00 0.03 0.05 77 1024.9
20260905092504 21 253 0.0 3.2 0.00 0.03 0.05 76 1025.0
20260905092004 21 254 0.0 3.2 0.00 0.03 0.05 76 1025.0
20260905091504 21 252 1.6 6.4 0.00 0.03 0.05 76 1025.0
20260905091005 21 246 1.6 6.4 0.00 0.03 0.05 76 1024.9
20260905090504 21 255 1.6 6.4 0.00 0.03 0.05 75 1024.9
20260905090005 21 46 0.0 0.0 0.00 0.03 0.05 75 1024.8
20260905085505 21 46 0.0 0.0 0.00 0.03 0.05 76 1024.6
20260905085004 21 131 0.0 0.0 0.00 0.03 0.05 77 1024.4
20260905084504 21 163 0.0 1.6 0.00 0.03 0.05 77 1024.6
20260905084004 21 254 0.0 1.6 0.00 0.03 0.05 77 1024.4
20260905083504 21 252 0.0 1.6 0.00 0.03 0.05 77 1024.6
20260905083005 21 249 0.0 1.6 0.00 0.03 0.05 76 1024.6
20260905082504 21 250 0.0 1.6 0.00 0.03 0.05 77 1024.5
20260905082005 21 251 1.6 4.8 0.00 0.03 0.05 77 1024.5
20260905081504 20 257 1.6 4.8 0.00 0.03 0.05 78 1024.4
20260905081005 20 252 0.0 3.2 0.00 0.03 0.05 79 1024.4
20260905080505 20 251 0.0 3.2 0.00 0.03 0.05 78 1024.3
20260905080004 20 259 0.0 3.2 0.00 0.03 0.05 79 1024.2
20260905075004 20 20 0.0 1.6 0.00 0.03 0.05 80 1024.1
20260905074504 20 10 0.0 1.6 0.00 0.03 0.05 81 1024.0
20260905074005 20 6 0.0 0.0 0.00 0.03 0.05 81 1024.0
20260905073504 20 14 0.0 0.0 0.00 0.03 0.05 81 1024.0